Flag for United Kingdom Weather past 2 weeks in Bridlington, England, United Kingdom

Now
61 °F

Cool.


Feels Like: 61 °F
Forecast: 57 / 65 °F
Wind: 8 mph from North

Location: Bridlington Mrsc

Current Time: Sep 16, 2014 at 4:47:47 PM

Latest Report: Sep 16, 2014 at 4:00 PM


Visibility: N/A

Pressure: 30.02 "Hg

Humidity: 85%

Dew point: 56 °F

Location of BridlingtonLocation

Historic Weather in Bridlington — Graph

°F

Bridlington temperature yesterday

Maximum temperature yesterday: 64 °F (at 3:00 PM)
Minimum temperature yesterday: 58 °F (at 2:00 AM)
Average temperature yesterday: 59 °F

Past Weeks' High & Low Weather Summary

 TemperatureHumidityPressure
High65 °F (Sep 3, 1:00 PM)100% (Sep 16, 4:00 AM)30.40 "Hg (Sep 16, 4:00 AM)
Low47 °F (Sep 8, 3:00 AM)54% (Sep 7, 4:00 PM)29.93 "Hg (Sep 6, 6:00 AM)
Average57 °F86%30.16 "Hg
* Reported Sep 1 3:00 PM — Sep 16 3:00 PM, Bridlington, Weather by CustomWeather, © 2014

Note: Actual official high and low records may vary slightly from our data, if they occured in-between our weather recording intervals... More about our weather records

Advertising

Bridlington weather history for previous 24 hours

 ConditionsComfort  
Time TempWeatherWind HumidityBarometerVisibility
3:00 PM
Sep 16
61 °FCool.5 mph84%30.03 "HgN/A
2:00 PM60 °FCool.6 mph87%30.04 "HgN/A
1:00 PM59 °FCool.6 mph92%30.04 "HgN/A
12:00 PM58 °FCool.7 mph97%30.05 "HgN/A
11:00 AM58 °FCool.6 mph100%30.05 "HgN/A
10:00 AM57 °FCool.8 mph100%30.05 "HgN/A
9:00 AM57 °FCool.8 mph100%30.05 "HgN/A
8:00 AM57 °FCool.8 mph100%30.04 "HgN/A
7:00 AM57 °FCool.7 mph100%30.03 "HgN/A
6:00 AM57 °FCool.5 mph100%30.03 "HgN/A
5:00 AM58 °FCool.6 mph99%30.03 "HgN/A
4:00 AM59 °FCool.5 mph100%30.03 "HgN/A
3:00 AM58 °FCool.6 mph99%30.03 "HgN/A
2:00 AM57 °FCool.6 mph98%30.03 "HgN/A
1:00 AM59 °FCool.8 mph98%30.04 "HgN/A
12:00 AM59 °FCool.9 mph98%30.04 "HgN/A
11:00 PM
Sep 15
59 °FCool.9 mph98%30.05 "HgN/A
10:00 PM58 °FCool.9 mph98%30.04 "HgN/A
9:00 PM58 °FCool.6 mph96%30.05 "HgN/A
8:00 PM59 °FCool.7 mph94%30.04 "HgN/A
7:00 PM59 °FCool.2 mph91%30.03 "HgN/A
6:00 PM60 °FCool.8 mph92%30.03 "HgN/A
5:00 PM61 °FCool.9 mph89%30.03 "HgN/A
4:00 PM63 °FMild.7 mph85%30.03 "HgN/A
Weather by CustomWeather, © 2014

See weather overviewHow to use our weather pages